Theta_e
311 310 309 307 307 311 312 313 314 313 312 313 315 315 314 313 312 313 318 315 315 315 322 333 335 335 335 335 335 334 333 332 333 332 331 330 330 330 330 329 329 329 329 328
311 311 307 308 309 310 311 312 312 311 310 312 311 312 311 311 311 311 313 315 316 314 314 314 315 327 333 333 333 333 333 334 333 333 333 332 331 330 330 329 329 329 328 328
312 309 308 308 308 308 308 310 311 312 309 309 307 306 308 307 309 311 311 312 310 310 311 311 315 318 317 330 333 332 334 334 334 334 333 333 333 332 330 330 329 329 328 328
308 308 310 309 308 308 308 307 308 308 311 312 303 307 305 306 307 306 310 310 308 308 308 310 316 321 323 324 332 333 333 333 332 333 333 333 333 333 332 331 330 329 329 328
308 308 309 310 309 307 308 308 307 306 306 305 304 303 304 303 304 305 303 304 306 307 307 308 314 321 325 328 331 332 334 334 334 334 334 335 335 334 334 333 332 331 330 328
305 306 307 308 308 307 306 306 305 305 305 308 304 302 303 302 303 303 305 305 305 306 307 307 308 311 318 322 326 328 330 332 332 332 334 333 334 334 333 333 330 330 330 329
305 306 306 307 309 308 306 307 309 307 303 306 302 302 303 303 304 304 304 301 304 304 305 306 306 307 307 310 316 320 324 328 330 332 332 332 333 334 333 333 332 333 331 330
303 308 306 307 309 309 306 306 307 303 303 306 303 305 303 304 302 301 302 301 301 302 302 304 304 304 305 306 307 309 314 319 322 327 330 331 331 331 331 331 330 331 330 331
304 305 305 307 307 308 308 307 304 304 296 306 305 304 305 305 303 301 299 300 300 300 301 301 303 303 303 304 305 305 306 307 309 312 320 325 327 328 329 330 328 330 328 327
304 306 305 307 307 307 307 304 307 302 303 304 305 305 303 307 305 302 299 299 299 300 301 301 301 302 302 302 302 303 304 304 305 307 308 310 320 324 326 327 327 326 324 326
301 301 306 307 306 307 307 306 305 304 303 304 304 304 306 305 304 303 300 300 300 300 300 300 301 301 302 302 303 303 303 303 304 305 307 308 311 317 320 322 322 322 324 323
304 301 306 306 305 304 306 306 306 305 303 302 306 305 304 303 302 302 301 301 301 300 300 299 300 300 301 302 302 302 302 303 303 304 305 307 310 314 316 318 318 319 319 318
303 299 302 305 303 303 307 306 307 307 305 304 304 304 303 303 303 302 301 301 300 300 300 299 299 300 301 301 302 302 302 302 302 303 305 306 308 310 312 313 313 315 315 314
301 299 298 299 301 300 305 306 305 300 300 306 304 305 304 303 302 302 302 301 300 300 300 300 300 299 300 301 301 302 303 303 303 302 303 304 305 306 308 309 310 311 311 311
297 298 299 298 298 300 299 303 305 305 302 300 302 304 305 303 301 301 302 302 300 300 300 300 300 300 299 299 300 301 303 303 303 303 304 304 305 305 306 306 306 306 305 304
297 295 294 295 296 299 299 300 301 297 297 297 298 300 301 300 301 301 301 302 302 302 301 299 299 298 298 297 298 299 300 300 301 300 302 302 302 301 301 300 300 299 298 298
295 290 291 292 291 292 294 296 301 301 300 297 298 300 298 300 300 302 303 302 301 302 301 300 299 299 297 297 296 296 297 297 297 297 297 297 297 297 296 296 296 297 298 298
289 287 284 292 288 292 293 291 293 299 298 298 299 298 297 297 298 298 303 303 303 302 302 300 300 299 299 297 296 295 296 296 296 296 296 296 296 296 297 297 297 297 297 297
291 287 284 290 284 287 292 293 293 295 296 293 294 292 294 297 300 301 302 302 302 301 300 300 299 298 298 296 296 296 295 295 296 296 296 296 297 297 297 297 297 296 295 294
290 286 287 279 285 286 289 293 294 294 290 292 292 293 293 299 298 296 300 301 301 302 300 300 299 298 297 297 296 296 296 295 295 295 295 296 296 295 295 294 293 293 293 292
279 276 279 285 278 283 286 291 293 288 290 292 293 293 293 295 298 299 300 300 301 301 300 300 299 299 299 297 296 296 295 295 295 295 294 294 294 293 293 292 292 291 291 291
285 281 278 279 280 285 288 290 292 291 293 294 294 294 294 294 294 294 296 299 299 300 300 299 299 301 300 300 297 296 296 295 294 295 294 293 292 292 291 291 291 291 291 291
285 285 283 285 287 288 290 292 294 294 294 294 294 295 295 294 295 294 294 296 296 298 299 298 298 299 300 300 299 298 298 298 298 296 295 292 291 291 291 291 291 291 290 290
285 285 287 286 286 288 291 292 294 294 294 294 294 295 295 295 294 294 294 294 296 296 297 298 297 297 298 299 299 298 298 296 294 294 292 290 290 291 291 291 291 290 290 289
288 286 286 286 288 290 293 294 294 294 294 294 294 295 295 295 294 294 293 293 295 294 294 296 297 296 298 298 298 297 295 293 293 292 292 291 290 290 290 290 290 289 289 289
288 287 290 291 292 293 294 294 294 294 294 293 293 293 293 294 293 293 293 293 293 293 294 295 296 296 296 296 295 293 293 292 291 291 291 290 290 290 289 289 289 288 288 287
Wind_Speed
13 4 9 5 4 9 11 3 3 5 3 2 5 10 11 10 4 8 10 12 12 14 11 16 20 18 19 22 25 24 21 21 22 22 23 22 22 19 19 18 17 17 16 16
5 6 6 8 6 7 7 5 4 4 7 3 0 11 15 8 4 6 10 15 14 11 13 14 14 20 23 21 20 21 23 24 24 25 23 24 22 22 20 19 19 19 19 18
8 4 9 7 6 6 1 8 5 3 5 4 6 4 9 4 7 9 7 6 6 8 12 12 10 12 19 24 23 24 27 28 26 27 27 27 28 25 22 22 23 22 22 21
3 2 10 9 7 6 4 5 5 8 6 1 1 3 4 5 6 4 16 9 4 5 9 9 9 10 13 20 24 27 27 29 24 25 26 24 27 28 24 23 21 21 24 24
1 4 6 6 5 6 4 6 5 4 5 2 5 2 5 2 4 4 8 8 5 6 9 9 7 7 9 13 19 23 27 27 27 26 22 24 24 23 25 24 21 18 19 23
1 2 5 6 4 8 8 5 5 4 3 3 6 5 4 3 2 4 4 6 6 5 7 8 8 7 7 9 10 14 18 21 24 24 25 27 26 26 25 25 23 23 18 19
3 4 4 2 7 2 3 14 2 2 1 4 1 2 5 4 4 3 3 8 8 6 7 7 7 7 6 7 7 9 11 14 19 24 25 26 29 29 28 27 26 23 23 22
4 3 3 0 4 6 3 4 4 6 3 3 1 4 3 3 6 7 8 9 9 8 7 6 4 4 5 5 7 8 9 11 12 15 18 20 25 27 28 27 26 26 24 26
4 2 2 2 3 4 4 2 2 6 1 2 3 3 4 3 5 8 8 8 8 5 4 3 2 3 4 6 7 8 9 10 11 13 16 17 21 25 27 24 23 25 23 28
3 5 2 2 6 1 5 7 2 2 3 2 1 1 2 4 4 3 4 7 7 5 4 3 2 2 4 5 5 7 10 11 12 12 13 15 16 14 17 18 18 22 19 20
3 3 0 2 4 1 3 2 3 4 3 3 3 2 1 2 5 4 5 4 3 3 3 2 3 3 4 4 5 6 6 7 8 10 10 10 12 15 13 14 15 14 10 13
2 4 4 3 2 2 1 3 3 3 2 1 2 2 2 2 4 7 6 4 3 1 2 3 3 4 4 4 4 3 3 3 4 5 5 5 5 6 7 9 8 8 9 8
2 2 3 3 3 3 3 2 3 4 3 2 3 2 2 3 1 3 5 5 4 2 1 1 2 3 4 4 3 3 3 2 1 0 3 3 4 5 5 2 3 2 3 4
5 3 3 4 2 3 4 3 3 5 3 2 3 1 4 5 6 4 5 5 5 4 2 1 1 1 2 2 3 4 4 4 2 3 3 3 4 4 4 4 5 5 6 5
4 4 3 5 4 3 2 5 5 3 3 4 3 4 5 4 2 5 5 7 9 8 6 4 2 2 1 2 3 4 5 5 5 4 5 6 6 7 6 6 6 6 6 7
4 2 2 6 8 6 3 3 6 3 2 1 3 4 4 10 10 7 3 9 12 10 8 7 5 4 3 2 3 4 5 6 6 6 6 8 8 8 8 9 9 9 9 9
2 4 3 2 4 4 4 4 4 2 2 6 4 6 4 5 11 11 15 8 9 10 8 8 6 5 5 4 4 5 5 6 6 6 6 8 9 9 9 9 9 9 8 8
4 4 3 2 2 1 4 3 2 2 2 4 3 5 6 9 15 14 9 8 7 6 7 7 8 8 8 7 5 5 6 6 6 6 7 7 8 8 8 7 7 6 6 5
6 4 3 3 2 4 3 3 5 5 3 4 3 4 5 9 4 1 4 4 4 3 4 5 7 8 7 7 6 6 6 7 7 7 6 5 6 5 5 5 5 5 5 4
6 8 4 3 5 4 5 1 2 3 3 5 3 2 4 4 2 3 9 6 3 5 4 6 7 8 8 8 9 9 9 9 8 8 8 7 7 6 5 5 4 3 3 2
4 4 4 2 1 7 7 2 2 6 4 8 6 2 2 0 3 9 10 7 4 5 6 8 10 8 6 7 9 10 9 9 8 7 7 7 7 7 6 6 5 4 2 2
4 5 2 3 3 7 9 4 5 5 9 9 5 1 3 6 8 9 8 8 6 6 9 12 13 11 6 10 12 10 9 8 8 7 7 7 6 6 5 5 4 2 3 4
2 6 4 8 5 5 15 5 9 10 7 8 6 3 6 6 6 9 8 9 7 6 11 14 15 15 11 10 11 12 12 10 9 10 9 8 7 7 6 5 5 6 6 6
4 6 3 3 5 16 16 17 12 11 11 9 10 12 13 12 9 10 12 10 10 9 10 14 17 18 16 14 14 14 14 13 12 12 11 10 9 8 8 8 9 9 9 9
4 8 5 5 8 7 12 16 19 19 20 15 15 16 15 14 14 12 12 12 11 10 11 13 15 17 17 17 16 15 15 14 12 12 11 11 12 12 12 11 12 12 12 13
11 7 5 7 10 10 8 2 8 11 8 10 11 12 10 11 6 8 10 10 10 9 9 11 13 15 16 17 16 15 15 15 15 15 15 14 14 15 15 15 15 15 15 15
Wind_Direction
163 139 199 128 129 114 117 94 155 97 50 30 341 293 298 304 284 229 214 222 219 222 216 214 218 219 222 225 221 220 219 219 216 213 206 211 223 229 232 237 240 245 248 251
141 205 152 148 133 127 123 111 252 112 114 208 230 294 291 293 268 243 213 206 220 225 207 207 215 221 223 222 223 226 226 228 225 223 223 222 226 231 237 242 247 248 250 253
147 184 156 152 141 125 69 179 192 150 114 327 348 259 249 278 249 224 228 202 179 193 197 198 206 214 217 223 223 224 234 236 231 229 228 226 229 235 240 243 248 249 254 258
140 85 157 149 167 149 124 183 203 135 113 68 304 301 234 215 250 209 223 225 166 164 184 188 188 196 208 215 221 224 229 235 235 231 231 233 240 244 247 252 257 262 260 261
43 111 137 155 176 153 146 143 140 117 117 148 166 215 258 146 227 253 69 116 132 152 173 175 175 174 189 205 218 225 229 233 241 238 234 239 244 250 252 253 257 269 272 260
98 99 135 176 139 166 135 97 59 68 108 240 192 173 279 113 8 69 81 98 104 142 165 176 179 181 182 195 209 225 230 230 236 239 235 235 237 243 248 255 261 268 272 262
62 351 323 130 111 93 123 148 90 58 351 216 338 129 253 23 20 300 217 138 146 151 163 181 193 199 201 199 209 222 229 230 231 237 237 241 243 247 249 252 256 261 264 258
141 178 249 322 139 156 150 169 150 168 170 187 155 216 293 47 53 61 108 112 120 134 148 165 188 224 237 237 228 226 230 232 234 238 239 240 247 248 250 253 257 264 263 263
132 66 308 74 106 142 170 183 143 106 232 127 179 236 96 90 66 78 92 105 97 104 105 107 133 286 286 276 269 264 254 247 241 241 243 245 247 249 248 248 254 265 264 268
179 103 11 102 112 324 161 155 92 22 137 190 17 272 119 6 14 142 143 129 122 109 86 67 56 334 308 302 290 274 266 264 260 255 253 252 247 251 243 239 240 256 262 261
133 83 8 86 20 95 89 91 48 109 84 144 125 260 152 340 311 216 178 166 136 108 83 41 15 350 333 322 306 294 278 259 252 251 254 252 250 245 250 239 242 246 240 266
27 109 96 81 18 344 75 139 128 126 258 31 99 293 337 53 347 141 174 175 158 116 36 23 23 12 3 356 352 338 319 296 270 248 243 244 241 231 231 233 213 227 229 233
180 15 92 41 11 13 80 84 107 99 73 190 114 273 3 325 234 181 180 205 199 185 132 25 15 13 18 24 26 28 18 340 301 98 161 184 205 217 218 161 126 153 172 153
63 67 127 162 146 131 130 114 74 99 111 157 197 290 238 274 276 280 253 225 228 239 249 266 309 352 49 45 67 77 75 78 74 104 139 171 188 203 204 179 158 135 143 150
77 98 55 49 10 65 122 141 136 121 154 133 221 201 248 224 229 283 305 233 229 234 250 256 248 259 275 102 91 104 114 117 123 138 148 151 148 151 153 154 148 154 151 149
4 122 103 28 3 30 64 87 109 105 96 41 94 275 302 326 343 9 298 233 238 244 251 251 244 231 218 181 143 128 127 127 122 121 128 126 123 120 119 120 121 122 123 120
63 119 62 282 346 7 352 225 175 158 160 141 166 236 335 326 324 338 337 314 260 258 256 258 244 226 217 207 177 150 135 131 128 127 127 125 122 123 123 120 117 116 115 110
112 84 49 140 20 60 249 338 322 205 263 216 277 274 290 284 294 293 313 310 304 252 242 243 227 218 210 202 191 168 150 142 136 135 135 133 129 130 129 127 125 117 107 101
38 106 75 120 159 283 331 185 153 168 266 179 204 305 301 312 306 268 359 308 297 252 233 223 209 208 206 198 188 177 167 160 156 155 152 149 147 149 143 137 128 118 107 96
55 58 99 68 118 183 239 185 182 102 307 183 168 288 316 346 39 261 349 341 271 224 236 215 204 199 197 197 195 189 181 182 180 181 176 172 165 156 150 143 132 119 106 76
19 7 110 98 149 290 248 216 149 87 228 168 178 179 5 21 267 304 319 332 312 234 229 202 194 193 197 212 208 204 201 200 202 195 187 181 178 177 175 172 169 167 176 212
160 128 165 83 61 286 181 124 167 186 153 162 162 107 343 329 340 331 315 301 294 251 227 206 205 201 222 228 217 218 218 214 205 210 208 207 199 197 194 203 208 225 259 274
311 179 180 184 211 249 197 221 201 176 172 197 199 251 318 309 308 329 329 295 283 256 231 229 218 212 219 216 208 206 212 218 227 237 236 218 209 210 213 222 240 253 262 273
251 173 204 89 248 236 241 237 243 232 238 251 265 283 285 270 271 296 304 302 274 263 238 224 223 223 230 239 237 238 245 252 241 228 218 215 217 226 238 246 254 259 264 269
206 148 184 259 272 274 253 235 242 252 258 264 279 268 272 263 264 280 289 292 274 260 243 228 222 223 226 236 240 237 244 240 230 224 221 225 233 239 246 252 258 265 270 270
187 195 181 235 217 204 228 196 230 240 268 270 275 270 261 255 259 277 301 297 271 252 236 225 219 217 218 223 227 228 227 224 223 223 225 232 241 250 257 261 264 267 267 271